Christchurch, New Zealand

11:13 AM NZDT on October 22, 2017 (GMT +1300)
Christchurch

Weather History for 93780 - April, 2013

Change the Weather History Date:

Saturday, April 20, 2013

  Actual Average Record
Temperature  
Mean Temperature 50 °F -  
Max Temperature 51 °F 57 °F - ()
Min Temperature 48 °F 39 °F - ()
Degree Days  
Heating Degree Days 16    
Moisture  
Dew Point 49 °F    
Average Humidity 93    
Maximum Humidity 100    
Minimum Humidity 87    
Precipitation  
Precipitation 0.00 in - - ()
Sea Level Pressure  
Sea Level Pressure 30.05 in    
Wind  
Wind Speed 8 mph ()    
Max Wind Speed 17 mph    
Max Gust Speed -    
Visibility 6.2 miles    
Events Rain    
T = Trace of Precipitation, MM = Missing Value Source: Averaged Metar Reports

Daily Weather History Graph

Daily Weather History Graph

Search for Another Location

Airport or City:

Trip Planner

Search our weather history database for the weather conditions in past years. The results will help you decide how hot, cold, wet, or windy it might be!

Date:

Astronomy

Apr. 20, 2013 Rise Set
Actual Time 7:08 AM NZST 5:48 PM NZST
Civil Twilight 6:39 AM NZST 6:17 PM NZST
Nautical Twilight 6:05 AM NZST 6:51 PM NZST
Astronomical Twilight 5:32 AM NZST 7:24 PM NZST
Moon 2:32 PM NZST (4/20) 12:36 AM NZST (4/20)
Length of Visible Light 11h 38m
Length of Day
10h 40m
Waxing Gibbous, 64% of the Moon is Illuminated
Apr 20
Waxing Gibbous
Apr 26
Full
May 2
Last Quarter
May 10
New
May 18
First Quarter

Hourly Weather History & Observations

Time (NZST) Temp. Dew Point Humidity Pressure Visibility Wind Dir Wind Speed Gust Speed Precip Events Conditions
12:00 AM 50.0 °F 48.2 °F 94% 30.04 in 6.2 mi SW 3.5 mph - N/A Rain Light Rain
1:00 AM 50.0 °F 48.2 °F 94% 30.04 in 6.2 mi SW 3.5 mph - N/A   Mostly Cloudy
2:00 AM 48.2 °F 48.2 °F 100% 30.04 in 6.2 mi SW 3.5 mph - N/A   Mostly Cloudy
3:00 AM 50.0 °F 48.2 °F 94% 30.04 in 6.2 mi SSE 2.3 mph - N/A Rain Light Rain
4:00 AM 50.0 °F 48.2 °F 94% 30.04 in 6.2 mi WSW 1.2 mph - N/A Rain Rain
5:00 AM 50.0 °F 48.2 °F 94% 30.04 in 6.2 mi SSE 2.3 mph - N/A Rain Rain
6:00 AM 50.0 °F 50.0 °F 100% 30.04 in 6.2 mi SSW 3.5 mph - N/A Rain Rain
6:20 AM 50.0 °F 50.0 °F 100% 30.04 in 6.2 mi North 3.5 mph - N/A Rain Rain
7:00 AM 51.8 °F 50.0 °F 94% 30.04 in 6.2 mi NE 9.2 mph - N/A Rain Rain
8:00 AM 51.8 °F 50.0 °F 94% 30.06 in 6.2 mi North 13.8 mph - N/A Rain Rain
9:00 AM 51.8 °F 50.0 °F 94% 30.06 in 6.2 mi North 12.7 mph - N/A Rain Light Rain
10:00 AM 51.8 °F 50.0 °F 94% 30.06 in 6.2 mi North 13.8 mph - N/A Rain Light Rain
11:00 AM 51.8 °F 50.0 °F 94% 30.06 in 6.2 mi NE 17.3 mph - N/A Rain Light Rain
12:00 PM 51.8 °F 50.0 °F 94% 30.06 in 6.2 mi ENE 17.3 mph - N/A Rain Light Rain
1:00 PM 51.8 °F 50.0 °F 94% 30.06 in 6.2 mi ENE 16.1 mph - N/A Rain Rain
2:00 PM 50.0 °F 48.2 °F 94% 30.04 in 6.2 mi East 16.1 mph - N/A Rain Rain
3:00 PM 50.0 °F 48.2 °F 94% 30.04 in 6.2 mi ESE 16.1 mph - N/A Rain Rain
4:00 PM 50.0 °F 48.2 °F 94% 30.04 in 6.2 mi ESE 13.8 mph - N/A Rain Rain
5:00 PM 50.0 °F 46.4 °F 87% 30.04 in 6.2 mi ESE 17.3 mph - N/A Rain Rain
6:00 PM 50.0 °F 48.2 °F 94% 30.04 in 6.2 mi East 15.0 mph - N/A Rain Rain
7:00 PM 50.0 °F 46.4 °F 87% 30.04 in 6.2 mi East 16.1 mph - N/A Rain Rain
8:00 PM 50.0 °F 46.4 °F 87% 30.04 in 6.2 mi East 17.3 mph - N/A Rain Rain
9:00 PM 51.8 °F 48.2 °F 88% 30.06 in 6.2 mi East 16.1 mph - N/A Rain Rain
10:00 PM 51.8 °F 48.2 °F 88% 30.04 in 6.2 mi East 16.1 mph - N/A Rain Rain
11:00 PM 51.8 °F 48.2 °F 88% 30.04 in 6.2 mi East 16.1 mph - N/A Rain Rain